Location: Bailleul
(50.3375°N, 2.8513°E)
Time: 20:28:57
(UTC+00:00)

SPOT 1/Viking Rocket - Pass Details

Date: 19 April 2021
Orbit: 776 x 794 km, 98.4° (Epoch: 17 May)

Event Time Altitude Azimuth Distance (km) Brightness Sun altitude
Exits shadow 21:07:33 23° 184° (S) 1,622 4.8 -19.0°
Maximum altitude 21:10:44 61° 258° (WSW) 899 3.9 -19.3°
Drops below altitude 10° 21:15:56 10° 339° (NNW) 2,374 7.1 -19.9°
Sets 21:18:19 0° 343° (NNW) 3,307 8.0 -20.1°
